Погода в Анурадхапуре

Шри-Ланка     8°21′28″N   80°25′18″E
темп.,
°C
ветер,
м/с
пор.,
м/с
влажн.,
%
обл.,
%
осадки,
мм/ч
давл.,
гПа
погр.,
м
12 августа, пт
пт1223:30+26юз61182100 0.0 1009782
02:30+25юз61287100 0.0 1007681
05:30+25юз6118749 0.0 1008766
08:30+28юз7107012 0.0 10091008
11:30+33зюз784742 0.0 10081854
14:30+33юз7845100 0.0 10061966
17:30+29юз665881 0.0 10061041
20:30+26юз5972100 0.0 1009708
13 августа, сб
сб1323:30+26ююз51079100 0.0 1009678
02:30+25юз51181100 0.0 1007647
05:30+25юз5118398 0.0 1007595
08:30+28юз697198 0.0 1009767
11:30+33юз6549100 0.0 10081601
14:30+33зюз654661 0.0 10051893
17:30+30юз665791 0.0 1006950
20:30+26юз4975100 0.0 1008449
14 августа, вс
вс1423:30+25ююз41080100 0.0 1008503
02:30+25ююз51183100 0.0 1006565
05:30+25ююз61281100 0.0 1007613
08:30+27юз6971100 0.0 1009733
11:30+32юз6652100 0.0 10091213
14:30+33юз6644100 0.0 10061596
17:30+30зюз565596 0.0 1007963
20:30+26ююз4973100 0.1 1009466
15 августа, пн
пн1523:30+25ююз51081100 0.1 1008470
02:30+25ююз51182100 0.0 1007550
05:30+24ююз51283100 0.0 1007560
08:30+28ююз686664 0.0 1009751
11:30+33юз444599 0.0 10081591
14:30+36юз333789 0.0 10052558
17:30+28юз236896 2.0 1007121
20:30+26юз3782100 5.9 1009265
16 августа, вт
вт1623:30+25ююз498674 5.9 1010404
02:30+24ююз3990100 3.9 1008481
05:30+24ююз410925 7.5 1009475
08:30+27ююз587692 0.0 1011641
11:30+32ююз33519 0.0 10091461
14:30+33юз324764 0.1 10061579
17:30+29ююз246797 1.6 1007149
20:30+25зюз358761 6.7 1010170